When you browse on this site, cookies collect data to enhance your experience and personalize the content and advertising you see.
Visit our Privacy Policy to learn more. By continuing to use the site, you agree to this use of cookies and data.
  • en Suisse
  • Liste des pays
  • À 7 jours
  • Température de l'eau
  • Carte satellitaire
  • Carte météo
  • Widgets météo
  • user-avatar
    Se connecter

    Météo par heure à Ichgl

    Ce jour, 23 Mars, Samedi

    Heure Température Précipitation Vent Pression Humidité
    00:00 -4°C° 0 mm 1 m/s 576 mmHg 58%
    01:00 -3°C° 0 mm 1 m/s 576 mmHg 51%
    02:00 -3°C° 0 mm 1 m/s 576 mmHg 51%
    03:00 -4°C° 0 mm 1 m/s 576 mmHg 51%
    04:00 -4°C° 0 mm 1 m/s 575 mmHg 52%
    05:00 -4°C° 0 mm 1 m/s 576 mmHg 52%
    06:00 -4°C° 0 mm 1 m/s 576 mmHg 53%
    07:00 -4°C° 0 mm 1 m/s 576 mmHg 51%
    08:00 -2°C° 0 mm 1 m/s 577 mmHg 65%
    09:00 0°C° 0 mm 1 m/s 578 mmHg 78%
    10:00 +1°C° 0 mm 0 m/s 578 mmHg 91%
    11:00 +2°C° 0 mm 0 m/s 578 mmHg 91%
    12:00 +2°C° 0 mm 0 m/s 578 mmHg 90%
    13:00 +2°C° 0 mm 0 m/s 578 mmHg 90%
    14:00 +2°C° 0 mm 0 m/s 578 mmHg 91%
    15:00 +2°C° 0 mm 0 m/s 578 mmHg 92%
    16:00 +3°C° 0 mm 1 m/s 577 mmHg 92%
    17:00 +1°C° 0 mm 1 m/s 576 mmHg 91%
    18:00 -1°C° 0 mm 1 m/s 576 mmHg 89%
    19:00 -3°C° 0 mm 1 m/s 575 mmHg 87%
    20:00 -3°C° 0 mm 1 m/s 575 mmHg 84%
    21:00 -3°C° 0 mm 1 m/s 575 mmHg 80%
    22:00 -4°C° 0 mm 1 m/s 575 mmHg 77%
    23:00 -4°C° 0 mm 1 m/s 575 mmHg 73%

    Demain, 24 Mars, Dimanche

    Heure Température Précipitation Vent Pression Humidité
    00:00 -6°C° 0 mm 2 m/s 575 mmHg 69%
    01:00 -6°C° 0 mm 2 m/s 575 mmHg 65%
    02:00 -6°C° 0 mm 2 m/s 575 mmHg 63%
    03:00 -6°C° 0 mm 2 m/s 574 mmHg 62%
    04:00 -6°C° 0 mm 2 m/s 574 mmHg 61%
    05:00 -6°C° 0 mm 2 m/s 574 mmHg 61%
    06:00 -6°C° 0 mm 2 m/s 574 mmHg 61%
    07:00 -6°C° 0 mm 2 m/s 574 mmHg 61%
    08:00 -4°C° 0 mm 2 m/s 575 mmHg 70%
    09:00 0°C° 0 mm 1 m/s 576 mmHg 79%
    10:00 +2°C° 0 mm 1 m/s 576 mmHg 88%
    11:00 +3°C° 0 mm 1 m/s 576 mmHg 88%
    12:00 +3°C° 0 mm 1 m/s 576 mmHg 88%
    13:00 +3°C° 0 mm 1 m/s 576 mmHg 88%
    14:00 +3°C° 0 mm 1 m/s 576 mmHg 89%
    15:00 +3°C° 0 mm 1 m/s 575 mmHg 90%
    16:00 +3°C° 0 mm 1 m/s 575 mmHg 91%
    17:00 +1°C° 0 mm 1 m/s 574 mmHg 93%
    18:00 -1°C° 0 mm 1 m/s 573 mmHg 95%
    19:00 -2°C° 0 mm 1 m/s 572 mmHg 97%
    20:00 -2°C° 0 mm 1 m/s 573 mmHg 97%
    21:00 -2°C° 0 mm 1 m/s 573 mmHg 97%
    22:00 -3°C° 0 mm 1 m/s 573 mmHg 97%
    23:00 -3°C° 0 mm 1 m/s 573 mmHg 96%

    Après-demain, 25 Mars, Lundi

    Heure Température Précipitation Vent Pression Humidité
    00:00 -3°C° 0 mm 1 m/s 573 mmHg 96%
    01:00 -3°C° 0 mm 1 m/s 573 mmHg 95%
    02:00 -3°C° 0 mm 1 m/s 572 mmHg 95%
    03:00 -3°C° 0 mm 1 m/s 572 mmHg 95%
    04:00 -4°C° 0 mm 1 m/s 571 mmHg 96%
    05:00 -4°C° 0 mm 1 m/s 571 mmHg 95%
    06:00 -5°C° 0 mm 2 m/s 571 mmHg 95%
    07:00 -5°C° 0 mm 2 m/s 571 mmHg 95%
    08:00 -4°C° 0.1 mm 2 m/s 572 mmHg 93%
    09:00 -4°C° 0.1 mm 2 m/s 572 mmHg 92%
    10:00 -4°C° 0.1 mm 3 m/s 572 mmHg 90%
    11:00 -4°C° 0.1 mm 3 m/s 572 mmHg 90%
    12:00 -4°C° 0.1 mm 3 m/s 572 mmHg 90%
    13:00 -4°C° 0.1 mm 3 m/s 571 mmHg 90%
    14:00 -5°C° 0.3 mm 3 m/s 571 mmHg 89%
    15:00 -5°C° 0.3 mm 3 m/s 570 mmHg 88%
    16:00 -7°C° 0.3 mm 4 m/s 570 mmHg 87%
    17:00 -8°C° 0.6 mm 4 m/s 570 mmHg 89%
    18:00 -10°C° 0.6 mm 4 m/s 570 mmHg 91%
    19:00 -11°C° 0.6 mm 4 m/s 570 mmHg 93%
    20:00 -12°C° 0.3 mm 4 m/s 570 mmHg 93%
    21:00 -14°C° 0.3 mm 4 m/s 571 mmHg 93%
    22:00 -13°C° 0.3 mm 3 m/s 571 mmHg 92%
    23:00 -14°C° 0.2 mm 3 m/s 571 mmHg 92%

    26 Mars, Mardi

    Heure Température Précipitation Vent Pression Humidité
    00:00 -14°C° 0.2 mm 3 m/s 571 mmHg 92%
    01:00 -14°C° 0.2 mm 3 m/s 571 mmHg 91%
    02:00 -14°C° 0.1 mm 3 m/s 572 mmHg 92%
    03:00 -14°C° 0.1 mm 2 m/s 572 mmHg 93%
    04:00 -14°C° 0.1 mm 2 m/s 572 mmHg 93%
    05:00 -14°C° 0 mm 2 m/s 572 mmHg 93%
    06:00 -14°C° 0 mm 2 m/s 572 mmHg 93%
    07:00 -14°C° 0 mm 2 m/s 572 mmHg 92%
    08:00 -14°C° 0 mm 3 m/s 573 mmHg 86%
    09:00 -13°C° 0 mm 3 m/s 574 mmHg 79%
    10:00 -10°C° 0 mm 3 m/s 575 mmHg 73%
    11:00 -10°C° 0 mm 3 m/s 575 mmHg 71%
    12:00 -9°C° 0 mm 3 m/s 575 mmHg 69%
    13:00 -8°C° 0 mm 3 m/s 575 mmHg 67%
    14:00 -8°C° 0 mm 3 m/s 575 mmHg 68%
    15:00 -8°C° 0 mm 3 m/s 575 mmHg 70%
    16:00 -8°C° 0 mm 3 m/s 575 mmHg 72%
    17:00 -8°C° 0 mm 2 m/s 575 mmHg 78%
    18:00 -10°C° 0 mm 2 m/s 574 mmHg 85%
    19:00 -12°C° 0 mm 2 m/s 574 mmHg 91%
    20:00 -11°C° 0 mm 1 m/s 574 mmHg 91%
    21:00 -11°C° 0 mm 1 m/s 574 mmHg 91%
    22:00 -12°C° 0 mm 1 m/s 574 mmHg 92%
    23:00 -12°C° 0 mm 1 m/s 574 mmHg 88%

    27 Mars, Mercredi

    Heure Température Précipitation Vent Pression Humidité
    00:00 -12°C° 0 mm 1 m/s 574 mmHg 85%
    01:00 -13°C° 0 mm 1 m/s 573 mmHg 81%
    02:00 -13°C° 0 mm 1 m/s 573 mmHg 74%
    03:00 -13°C° 0 mm 1 m/s 573 mmHg 66%
    04:00 -13°C° 0 mm 1 m/s 573 mmHg 59%
    05:00 -12°C° 0 mm 1 m/s 573 mmHg 57%
    06:00 -12°C° 0 mm 1 m/s 574 mmHg 55%
    07:00 -12°C° 0 mm 1 m/s 574 mmHg 53%
    08:00 -10°C° 0 mm 2 m/s 575 mmHg 54%
    09:00 -8°C° 0 mm 2 m/s 576 mmHg 56%
    10:00 -6°C° 0 mm 2 m/s 577 mmHg 57%
    11:00 -5°C° 0 mm 2 m/s 577 mmHg 61%
    12:00 -5°C° 0 mm 2 m/s 577 mmHg 65%
    13:00 -4°C° 0 mm 2 m/s 577 mmHg 69%
    14:00 -4°C° 0 mm 2 m/s 577 mmHg 72%
    15:00 -5°C° 0 mm 3 m/s 577 mmHg 75%
    16:00 -5°C° 0 mm 3 m/s 577 mmHg 77%
    17:00 -5°C° 0 mm 2 m/s 577 mmHg 82%
    18:00 -6°C° 0 mm 2 m/s 576 mmHg 87%
    19:00 -7°C° 0 mm 2 m/s 576 mmHg 92%
    20:00 -8°C° 0 mm 2 m/s 576 mmHg 93%
    21:00 -7°C° 0 mm 1 m/s 576 mmHg 93%
    22:00 -8°C° 0 mm 1 m/s 576 mmHg 94%
    23:00 -8°C° 0 mm 1 m/s 576 mmHg 93%

    28 Mars, Jeudi

    Heure Température Précipitation Vent Pression Humidité
    00:00 -9°C° 0 mm 1 m/s 576 mmHg 92%
    01:00 -10°C° 0 mm 1 m/s 576 mmHg 92%
    02:00 -10°C° 0 mm 1 m/s 575 mmHg 90%
    03:00 -10°C° 0 mm 1 m/s 575 mmHg 88%
    04:00 -10°C° 0 mm 1 m/s 575 mmHg 86%
    05:00 -10°C° 0 mm 1 m/s 575 mmHg 83%
    06:00 -9°C° 0 mm 1 m/s 576 mmHg 81%
    07:00 -9°C° 0 mm 1 m/s 576 mmHg 79%
    08:00 -7°C° 0 mm 1 m/s 577 mmHg 75%
    09:00 -4°C° 0 mm 1 m/s 578 mmHg 71%
    10:00 -4°C° 0 mm 2 m/s 579 mmHg 67%
    11:00 -3°C° 0 mm 2 m/s 579 mmHg 67%
    12:00 -3°C° 0 mm 2 m/s 579 mmHg 68%
    13:00 -2°C° 0 mm 2 m/s 579 mmHg 69%
    14:00 -2°C° 0 mm 2 m/s 579 mmHg 70%
    15:00 -2°C° 0 mm 2 m/s 579 mmHg 71%
    16:00 -2°C° 0 mm 2 m/s 579 mmHg 72%
    17:00 -1°C° 0 mm 1 m/s 578 mmHg 78%
    18:00 -3°C° 0 mm 1 m/s 578 mmHg 84%
    19:00 -4°C° 0 mm 1 m/s 577 mmHg 90%
    20:00 -6°C° 0 mm 1 m/s 577 mmHg 90%
    21:00 -6°C° 0 mm 1 m/s 577 mmHg 90%
    22:00 -6°C° 0 mm 0 m/s 577 mmHg 91%
    23:00 -7°C° 0 mm 1 m/s 577 mmHg 89%
    Voir plus